Powrót do katalogu

STARLINK-5625

AktywnyŁącznośćVLEO
NORAD 55368·PAYLOAD·🇺🇸 United States

Wystrzelony Jan 26, 2023 z Cape Canaveral Space Force Station

Loading…

Następne Przeloty (najbliższe 24 godziny)

TLE

ŚwieżeSource: CelesTrak SupGP

Epoka: Sep 14, 2026, 20:48 UTC

1 55368C 23013AP  26257.86715278 -.00053648  00000+0 -19425-2 0  2579
2 55368  43.0034 300.1239 0001709 292.8175 221.9039 15.27614899    11

Śledź STARLINK-5625 w czasie rzeczywistym z AllMySat

Download on the App Store